Location: Caltech
(34.1382°N, 118.1253°W)
Time: 15:45:06
(UTC-08:00)

FENGYUN 3A - Visible Passes

Search period start: 13 February 2016 00:00
Search period end: 23 February 2016 00:00
Orbit: 820 x 833 km, 98.5° (Epoch: 13 February)

Date Brightness Start Highest point End Pass type
(mag) Time Alt. Az. Time Alt. Az. Time Alt. Az.
13 Feb 4.6 19:46:58 35° N 19:46:58 35° N 19:50:05 10° N visible
14 Feb 4.5 19:27:41 34° NNE 19:27:41 34° NNE 19:31:04 10° N visible
14 Feb 6.4 21:09:10 13° WNW 21:09:10 13° WNW 21:10:07 10° NW visible
15 Feb 4.7 19:08:24 27° NE 19:08:24 27° NE 19:11:52 10° N visible
15 Feb 5.9 20:49:53 20° NW 20:49:53 20° NW 20:52:01 10° NW visible
16 Feb 5.0 18:49:07 20° ENE 18:49:07 20° ENE 18:52:25 10° NNE visible
16 Feb 5.2 20:30:36 30° NW 20:30:36 30° NW 20:33:36 10° NNW visible
17 Feb 5.3 18:29:50 13° ENE 18:29:58 13° ENE 18:32:27 10° NE visible
17 Feb 4.6 20:11:19 42° NNW 20:11:19 42° NNW 20:14:57 10° NNW visible
18 Feb 4.0 19:52:02 52° N 19:52:02 52° N 19:56:08 10° N visible
19 Feb 4.0 19:32:46 47° NE 19:32:46 47° NE 19:37:10 10° N visible
19 Feb 6.3 21:14:15 14° WNW 21:14:15 14° WNW 21:15:44 10° NW visible
20 Feb 4.3 19:13:29 34° ENE 19:13:29 34° ENE 19:18:02 10° N visible
20 Feb 5.8 20:54:58 22° WNW 20:54:58 22° WNW 20:57:50 10° NW visible
21 Feb 4.7 18:54:13 23° ENE 18:54:30 23° ENE 18:58:41 10° NNE visible
21 Feb 5.1 20:35:42 34° WNW 20:35:42 34° WNW 20:39:30 10° NNW visible
22 Feb 5.1 18:34:57 15° ENE 18:35:53 16° ENE 18:38:57 10° NNE visible
22 Feb 4.3 20:16:26 52° WNW 20:16:26 52° WNW 20:20:55 10° NNW visible
